When you browse on this site, cookies collect data to enhance your experience and personalize the content and advertising you see.
Visit our Privacy Policy to learn more. By continuing to use the site, you agree to this use of cookies and data.
  • En España
  • Lista de países
  • Para 7 días
  • Temperatura del agua
  • Mapa Satelital
  • El tiempo en el mapa
  • Informadores
  • user-avatar
    Iniciar sesión

    Tiempo cada hora Krotivshchyna

    Hoy, 23 Mayo, Jueves

    Tiempo Temperatura Precipitaciones Viento Presión Humedad
    00:00 +13°C° 0 mm 1 mps 746 mmHg 94%
    01:00 +13°C° 0 mm 1 mps 746 mmHg 94%
    02:00 +11°C° 0 mm 0 mps 745 mmHg 95%
    03:00 +12°C° 0 mm 0 mps 745 mmHg 95%
    04:00 +12°C° 0 mm 0 mps 745 mmHg 95%
    05:00 +12°C° 0 mm 0 mps 745 mmHg 94%
    06:00 +15°C° 0 mm 1 mps 745 mmHg 89%
    07:00 +18°C° 0 mm 1 mps 745 mmHg 83%
    08:00 +19°C° 0 mm 1 mps 745 mmHg 79%
    09:00 +20°C° 0 mm 1 mps 745 mmHg 75%
    10:00 +21°C° 0 mm 1 mps 746 mmHg 71%
    11:00 +22°C° 0 mm 1 mps 746 mmHg 66%
    12:00 +22°C° 0 mm 1 mps 745 mmHg 64%
    13:00 +23°C° 0 mm 1 mps 745 mmHg 62%
    14:00 +23°C° 0 mm 1 mps 745 mmHg 60%
    15:00 +23°C° 0 mm 1 mps 745 mmHg 59%
    16:00 +22°C° 0 mm 0 mps 745 mmHg 58%
    17:00 +22°C° 0 mm 0 mps 745 mmHg 57%
    18:00 +20°C° 0 mm 0 mps 745 mmHg 63%
    19:00 +21°C° 0 mm 1 mps 745 mmHg 70%
    20:00 +19°C° 0 mm 1 mps 745 mmHg 76%
    21:00 +18°C° 0 mm 1 mps 746 mmHg 78%
    22:00 +18°C° 0 mm 1 mps 746 mmHg 81%
    23:00 +16°C° 0 mm 1 mps 746 mmHg 83%

    Mañana, 24 Mayo, Viernes

    Tiempo Temperatura Precipitaciones Viento Presión Humedad
    00:00 +16°C° 0 mm 1 mps 746 mmHg 85%
    01:00 +16°C° 0 mm 1 mps 746 mmHg 86%
    02:00 +15°C° 0 mm 1 mps 746 mmHg 88%
    03:00 +15°C° 0 mm 1 mps 746 mmHg 88%
    04:00 +16°C° 0 mm 1 mps 746 mmHg 88%
    05:00 +16°C° 0 mm 1 mps 746 mmHg 88%
    06:00 +19°C° 0 mm 1 mps 747 mmHg 82%
    07:00 +21°C° 0 mm 1 mps 747 mmHg 76%
    08:00 +22°C° 0 mm 1 mps 747 mmHg 70%
    09:00 +24°C° 0 mm 1 mps 747 mmHg 65%
    10:00 +25°C° 0 mm 1 mps 747 mmHg 60%
    11:00 +26°C° 0 mm 1 mps 746 mmHg 55%
    12:00 +26°C° 1 mm 1 mps 746 mmHg 55%
    13:00 +26°C° 1 mm 1 mps 746 mmHg 54%
    14:00 +27°C° 1 mm 1 mps 746 mmHg 53%
    15:00 +26°C° 0.5 mm 1 mps 746 mmHg 55%
    16:00 +26°C° 0.5 mm 1 mps 746 mmHg 58%
    17:00 +26°C° 0.5 mm 1 mps 745 mmHg 60%
    18:00 +24°C° 1 mm 1 mps 745 mmHg 66%
    19:00 +22°C° 1 mm 1 mps 745 mmHg 72%
    20:00 +20°C° 1 mm 1 mps 745 mmHg 78%
    21:00 +20°C° 1.1 mm 1 mps 745 mmHg 80%
    22:00 +19°C° 1.1 mm 1 mps 746 mmHg 81%
    23:00 +19°C° 1.1 mm 1 mps 746 mmHg 82%

    Pasado mañana, 25 Mayo, Sábado

    Tiempo Temperatura Precipitaciones Viento Presión Humedad
    00:00 +18°C° 0.2 mm 1 mps 745 mmHg 84%
    01:00 +17°C° 0.2 mm 2 mps 745 mmHg 85%
    02:00 +16°C° 0.2 mm 2 mps 745 mmHg 86%
    03:00 +16°C° 0.7 mm 2 mps 745 mmHg 87%
    04:00 +16°C° 0.7 mm 1 mps 745 mmHg 88%
    05:00 +16°C° 0.7 mm 1 mps 745 mmHg 89%
    06:00 +18°C° 0.3 mm 2 mps 745 mmHg 84%
    07:00 +19°C° 0.3 mm 2 mps 745 mmHg 79%
    08:00 +21°C° 0.3 mm 2 mps 745 mmHg 74%
    09:00 +22°C° 1.2 mm 3 mps 745 mmHg 71%
    10:00 +23°C° 1.2 mm 4 mps 745 mmHg 68%
    11:00 +23°C° 1.2 mm 4 mps 745 mmHg 64%
    12:00 +25°C° 0.1 mm 4 mps 745 mmHg 62%
    13:00 +25°C° 0.1 mm 4 mps 744 mmHg 59%
    14:00 +26°C° 0.1 mm 3 mps 744 mmHg 56%
    15:00 +25°C° 0.9 mm 3 mps 744 mmHg 60%
    16:00 +25°C° 0.9 mm 3 mps 744 mmHg 64%
    17:00 +24°C° 0.9 mm 2 mps 743 mmHg 68%
    18:00 +23°C° 0.2 mm 2 mps 743 mmHg 72%
    19:00 +21°C° 0.2 mm 1 mps 743 mmHg 76%
    20:00 +20°C° 0.2 mm 1 mps 743 mmHg 80%
    21:00 +19°C° 0.5 mm 1 mps 743 mmHg 83%
    22:00 +18°C° 0.5 mm 1 mps 743 mmHg 85%
    23:00 +18°C° 0.5 mm 1 mps 743 mmHg 88%

    26 Mayo, Domingo

    Tiempo Temperatura Precipitaciones Viento Presión Humedad
    00:00 +16°C° 0.3 mm 2 mps 743 mmHg 89%
    01:00 +16°C° 0.3 mm 2 mps 743 mmHg 91%
    02:00 +16°C° 0.3 mm 2 mps 743 mmHg 92%
    03:00 +16°C° 0.3 mm 2 mps 744 mmHg 92%
    04:00 +16°C° 0.3 mm 2 mps 744 mmHg 93%
    05:00 +16°C° 0.3 mm 2 mps 744 mmHg 93%
    06:00 +17°C° 0.5 mm 3 mps 744 mmHg 90%
    07:00 +19°C° 0.5 mm 4 mps 745 mmHg 87%
    08:00 +20°C° 0.5 mm 4 mps 745 mmHg 83%
    09:00 +21°C° 0.3 mm 5 mps 745 mmHg 78%
    10:00 +22°C° 0.3 mm 5 mps 745 mmHg 74%
    11:00 +23°C° 0.3 mm 5 mps 745 mmHg 69%
    12:00 +23°C° 0.2 mm 5 mps 745 mmHg 66%
    13:00 +24°C° 0.2 mm 6 mps 745 mmHg 64%
    14:00 +24°C° 0.2 mm 6 mps 746 mmHg 61%
    15:00 +25°C° 0 mm 5 mps 746 mmHg 64%
    16:00 +23°C° 0 mm 5 mps 746 mmHg 66%
    17:00 +23°C° 0 mm 5 mps 747 mmHg 69%
    18:00 +21°C° 0 mm 4 mps 747 mmHg 73%
    19:00 +19°C° 0 mm 3 mps 747 mmHg 77%
    20:00 +18°C° 0 mm 3 mps 748 mmHg 82%
    21:00 +17°C° 0 mm 3 mps 748 mmHg 83%
    22:00 +16°C° 0 mm 2 mps 748 mmHg 85%
    23:00 +16°C° 0 mm 2 mps 748 mmHg 86%

    27 Mayo, Lunes

    Tiempo Temperatura Precipitaciones Viento Presión Humedad
    00:00 +14°C° 0 mm 3 mps 749 mmHg 87%
    01:00 +14°C° 0 mm 3 mps 749 mmHg 88%
    02:00 +13°C° 0 mm 3 mps 749 mmHg 89%
    03:00 +14°C° 0 mm 2 mps 750 mmHg 89%
    04:00 +15°C° 0 mm 2 mps 750 mmHg 89%
    05:00 +15°C° 0 mm 2 mps 750 mmHg 89%
    06:00 +17°C° 0 mm 2 mps 750 mmHg 84%
    07:00 +19°C° 0 mm 3 mps 750 mmHg 79%
    08:00 +21°C° 0 mm 3 mps 751 mmHg 75%
    09:00 +22°C° 0.3 mm 4 mps 751 mmHg 72%
    10:00 +23°C° 0.3 mm 4 mps 751 mmHg 69%
    11:00 +25°C° 0.3 mm 5 mps 751 mmHg 66%
    12:00 +25°C° 0.6 mm 4 mps 751 mmHg 65%
    13:00 +26°C° 0.6 mm 4 mps 751 mmHg 63%
    14:00 +26°C° 0.6 mm 4 mps 751 mmHg 62%
    15:00 +26°C° 0.4 mm 3 mps 751 mmHg 64%
    16:00 +26°C° 0.4 mm 3 mps 751 mmHg 65%
    17:00 +26°C° 0.4 mm 2 mps 751 mmHg 67%
    18:00 +25°C° 0.1 mm 2 mps 751 mmHg 70%
    19:00 +23°C° 0.1 mm 2 mps 751 mmHg 74%
    20:00 +22°C° 0.1 mm 1 mps 751 mmHg 77%
    21:00 +20°C° 0 mm 2 mps 751 mmHg 79%
    22:00 +19°C° 0 mm 2 mps 751 mmHg 81%
    23:00 +19°C° 0 mm 2 mps 751 mmHg 83%

    28 Mayo, Martes

    Tiempo Temperatura Precipitaciones Viento Presión Humedad
    00:00 +18°C° 0 mm 2 mps 752 mmHg 84%
    01:00 +18°C° 0 mm 2 mps 752 mmHg 86%
    02:00 +18°C° 0 mm 2 mps 752 mmHg 87%
    03:00 +18°C° 0 mm 2 mps 752 mmHg 86%
    04:00 +18°C° 0 mm 2 mps 752 mmHg 86%
    05:00 +18°C° 0 mm 2 mps 752 mmHg 86%
    06:00 +19°C° 0 mm 3 mps 752 mmHg 81%
    07:00 +21°C° 0 mm 4 mps 752 mmHg 77%
    08:00 +23°C° 0 mm 4 mps 752 mmHg 73%
    09:00 +25°C° 0 mm 5 mps 752 mmHg 68%
    10:00 +24°C° 0 mm 6 mps 752 mmHg 63%
    11:00 +26°C° 0 mm 6 mps 752 mmHg 58%
    12:00 +27°C° 0 mm 6 mps 752 mmHg 57%
    13:00 +27°C° 0 mm 7 mps 751 mmHg 56%
    14:00 +28°C° 0 mm 7 mps 751 mmHg 55%
    15:00 +28°C° 0 mm 6 mps 751 mmHg 59%
    16:00 +28°C° 0 mm 5 mps 751 mmHg 63%
    17:00 +28°C° 0 mm 5 mps 750 mmHg 67%
    18:00 +26°C° 0 mm 5 mps 750 mmHg 70%
    19:00 +23°C° 0 mm 5 mps 750 mmHg 73%
    20:00 +22°C° 0 mm 4 mps 750 mmHg 76%
    21:00 +21°C° 0 mm 5 mps 750 mmHg 77%
    22:00 +21°C° 0 mm 5 mps 750 mmHg 78%
    23:00 +20°C° 0 mm 5 mps 750 mmHg 78%
    Mostrar más